[[{"header":{"parameterUnit":"m.s-1","parameterCategory":1,"la1":30.2991,"la2":30.254,"lo1":-89.0895,"lo2":-89.0444,"dy":0.0017,"dx":0.0017,"nx":28,"ny":28,"refTime":"2024-03-27T03:00:00:Z","depth":0,"parameterNumber":2,"parameterNumberName":"U-component_of_WINDS"},"data":[0,0,0,0,0,0,0,0,0,0,0,0,0,0,0,0,0,0,0,0,0,0,0,0,0,0,0,0,0,0,0,0,0,0,0,0,0,0,0,0,0,0,0,0,0,0,0,0,0,0,0,0,0,0,0,0,0,0,1.9272,1.9272,0,1.9287,1.9287,1.9287,1.9233,1.9232,1.923,1.9229,1.9243,1.9244,1.9246,0,0,0,0,0,0,0,0,0,0,0,0,0,1.9197,1.9199,1.9272,1.9272,1.9272,1.9287,1.9287,1.9287,1.9234,1.9232,1.923,1.9228,1.9242,1.9244,1.9246,0,0,0,0,0,0,0,0,0,0,0,0,0,1.9223,1.92,1.9272,1.9248,1.9245,1.9287,1.9287,1.9287,1.9234,1.9232,1.9229,1.9227,1.9241,1.9244,1.9247,1.9312,0,0,1.9255,1.9256,0,0,0,0,0,0,0,0,1.9221,1.9226,1.9251,1.9249,1.9247,1.9256,1.9266,1.9295,1.9235,1.9238,1.9229,1.9226,1.9249,1.9251,1.9259,1.9312,1.9313,1.9256,1.9257,1.9258,1.9259,0,0,0,0,0,0,0,1.922,1.9225,1.9278,1.9251,1.9249,1.9236,1.9237,1.9271,1.9257,1.9238,1.9234,1.9237,1.9247,1.9256,1.9259,1.9313,1.9255,1.9258,1.926,1.9261,1.9422,1.9424,0,0,0,0,0,0,1.9221,1.9224,1.9277,1.9278,1.9228,1.9239,1.924,1.9255,1.9256,1.9254,1.9239,1.9234,1.9253,1.9256,1.9259,1.9336,1.9258,1.9261,1.9263,1.9419,1.9422,1.9425,0,0,0,0,0,0,1.922,1.9227,1.9277,1.925,1.9255,1.9243,1.926,1.9257,1.9266,1.9257,1.9254,1.925,1.9251,1.9255,1.9299,1.9336,1.9262,1.9265,1.9416,1.942,1.9424,1.949,0,0,0,0,0,0,1.9218,1.9226,1.9251,1.9251,1.9257,1.9317,1.9263,1.9259,1.9271,1.9265,1.9267,1.9265,1.9249,1.9296,1.9302,1.9338,1.9267,1.9413,1.9418,1.9423,1.9484,1.9495,1.9505,0,0,0,0,0,1.9216,1.9268,1.9252,1.9259,1.9287,1.9319,1.9323,1.9304,1.9274,1.9299,1.9293,1.9265,1.9331,1.93,1.9307,1.9345,1.941,1.9416,1.9422,1.948,1.9493,1.9505,0,0,0,0,0,0,1.9272,1.9268,1.925,1.9305,1.9313,1.931,1.934,1.9318,1.9335,1.9329,1.9304,1.9305,1.9354,1.9354,1.932,1.9408,1.9365,1.9373,1.9407,1.9419,1.943,1.9429,1.9269,0,0,0,0,0,1.9291,1.9318,1.9312,1.9361,1.9366,1.9353,1.9366,1.9351,1.9358,1.9361,1.9359,1.9367,1.9389,1.9404,1.9424,1.9484,1.9484,1.9513,1.9524,1.9532,1.9539,1.9571,1.9584,1.9444,1.9444,1.9444,0,0,1.9331,1.9332,1.935,1.9373,1.9377,1.9405,1.9356,1.9387,1.9408,1.9366,1.9408,1.9406,1.9413,1.9466,1.9489,1.9467,1.9578,1.954,1.9546,1.9549,1.9579,1.9592,1.9604,1.9448,1.9448,1.9447,0,0,1.9417,1.942,1.9461,1.9467,1.9475,1.9466,1.9476,1.9477,1.9475,1.9517,1.9486,1.951,1.9549,1.9555,1.9564,1.9654,1.9629,1.9661,1.9715,1.9747,1.9758,1.9768,1.9801,1.9813,1.9668,1.9668,1.9668,0,1.9464,1.9506,1.9485,1.9519,1.953,1.9494,1.9536,1.9543,1.9557,1.9565,1.9541,1.959,1.9592,1.9646,1.9668,1.9676,1.9687,1.9661,1.9758,1.9768,1.9777,1.9808,1.982,1.9672,1.9672,1.9671,1.9671,0,1.9564,1.9594,1.9626,1.9641,1.9656,1.9694,1.9679,1.9697,1.9681,1.9674,1.9718,1.9719,1.974,1.9751,1.9735,1.9804,1.979,1.9763,1.9719,1.9794,1.9823,1.9835,1.9678,1.9676,1.9675,1.9674,0,0,1.9686,1.969,1.9703,1.971,1.9716,1.9738,1.9775,1.9795,1.9811,1.9822,1.9852,1.9886,1.9861,1.9871,1.9856,1.9884,1.9956,1.9853,1.9853,1.9872,2.0032,2.0053,2.0067,1.994,1.9942,1.9944,2.0032,0,1.9771,1.9834,1.9817,1.988,1.9907,1.9873,1.9905,1.9913,1.9908,1.993,1.9925,1.995,1.9914,1.992,1.9947,1.9942,1.9988,1.9935,1.9968,1.9969,1.9967,2.0082,2.0104,2.0187,2.0043,2.0045,2.0046,0,1.9878,1.9895,1.996,1.9964,1.9974,2.0003,2.0021,2.0043,2.0051,2.0045,2.0057,2.0037,2.0073,2.0029,2.0079,2.0043,2.0056,2.0055,2.0058,2.006,2.0012,2.0088,2.0213,2.0225,2.0063,2.0062,2.0061,0,1.9961,1.9999,2.0044,2.0051,2.0055,2.0077,2.008,2.0085,2.0099,2.0115,2.0123,2.0143,2.0154,2.0169,2.0154,2.0124,2.0207,2.0162,2.0203,2.0204,2.0222,2.0221,2.0351,2.023,2.023,2.0229,2.0229,0,2.0058,2.01,2.0081,2.0109,2.0155,2.0135,2.0181,2.018,2.0186,2.0212,2.0184,2.021,2.0189,2.0213,2.0201,2.0244,2.0249,2.0246,2.0243,2.0249,2.0249,2.0256,2.025,2.0233,2.0232,2.0231,2.0231,0,2.0158,2.0148,2.0194,2.0195,2.0196,2.023,2.0231,2.0256,2.025,2.0284,2.0291,2.0281,2.0308,2.0295,2.0322,2.0315,2.0371,2.0359,2.0368,2.0365,2.0408,2.0404,2.0547,2.0565,2.0432,2.0434,2.0435,0,2.0221,2.0252,2.0257,2.0273,2.0278,2.0305,2.0319,2.0301,2.0317,2.0329,2.0353,2.0378,2.0396,2.0441,2.0436,2.0457,2.0446,2.0495,2.0449,2.0454,2.0447,2.0446,2.0449,2.0504,2.0505,2.0506,2.0508,0,2.0333,2.0327,2.0348,2.0369,2.0387,2.0402,2.0415,2.043,2.0412,2.0431,2.0459,2.0473,2.0502,2.0527,2.0546,2.0548,2.0525,2.0522,2.0533,2.054,2.0544,2.0542,2.0394,2.0519,2.0518,2.0517,2.0516,2.0516,2.0416,2.0443,2.0451,2.0477,2.0485,2.0498,2.0522,2.0519,2.0542,2.0564,2.0552,2.0585,2.0592,2.0615,2.0621,2.0646,2.0627,2.0642,2.0646,2.065,2.0656,2.054,2.0649,2.0649,2.0649,2.0648,2.0648,0,2.0528,2.0532,2.0555,2.0575,2.0595,2.0572,2.0586,2.0604,2.0633,2.0642,2.0662,2.0694,2.0718,2.0715,2.0737,2.0758,2.0748,2.0764,2.0763,2.0764,2.0672,2.0661,2.0772,2.0772,2.0772,2.0772,2.0772,2.0772,2.0588,2.0633,2.0627,2.0676,2.0679,2.0711,2.072,2.0732,2.074,2.0777,2.0797,2.0796,2.0801,2.0823,2.0845,2.0843,2.0853,2.0873,2.0868,2.0782,2.077,2.0758,2.0748,2.0875,2.0875,2.0957,2.0958,2.0959]},{"header":{"parameterUnit":"m.s-1","parameterCategory":1,"la1":30.2991,"la2":30.254,"lo1":-89.0895,"lo2":-89.0444,"dy":0.0017,"dx":0.0017,"nx":28,"ny":28,"refTime":"2024-03-27T03:00:00:Z","depth":0,"parameterNumber":3,"parameterNumberName":"V-component_of_WINDS"},"data":[0,0,0,0,0,0,0,0,0,0,0,0,0,0,0,0,0,0,0,0,0,0,0,0,0,0,0,0,0,0,0,0,0,0,0,0,0,0,0,0,0,0,0,0,0,0,0,0,0,0,0,0,0,0,0,0,0,0,-2.5091,-2.5092,0,-2.5167,-2.5168,-2.5169,-2.5148,-2.5146,-2.5145,-2.5143,-2.5219,-2.5223,-2.5226,0,0,0,0,0,0,0,0,0,0,0,0,0,-2.4926,-2.4929,-2.5091,-2.5092,-2.5093,-2.5167,-2.5168,-2.5169,-2.5148,-2.5146,-2.5145,-2.5143,-2.5218,-2.5222,-2.5226,0,0,0,0,0,0,0,0,0,0,0,0,0,-2.4999,-2.493,-2.5091,-2.5091,-2.5092,-2.5167,-2.5168,-2.5169,-2.5149,-2.5146,-2.5144,-2.5142,-2.5217,-2.5222,-2.5227,-2.5305,0,0,-2.5243,-2.5245,0,0,0,0,0,0,0,0,-2.4995,-2.5005,-2.509,-2.5091,-2.5092,-2.5146,-2.5138,-2.5214,-2.5149,-2.5127,-2.5143,-2.5141,-2.5197,-2.5203,-2.5222,-2.5308,-2.5311,-2.5243,-2.5246,-2.5248,-2.525,0,0,0,0,0,0,0,-2.499,-2.5002,-2.5121,-2.5092,-2.5093,-2.5087,-2.5095,-2.5152,-2.5174,-2.5129,-2.5128,-2.5137,-2.5197,-2.5217,-2.5224,-2.5312,-2.5243,-2.5248,-2.5251,-2.5253,-2.5467,-2.547,0,0,0,0,0,0,-2.4985,-2.4998,-2.5118,-2.5123,-2.5037,-2.5092,-2.5101,-2.5131,-2.5173,-2.5177,-2.5139,-2.5136,-2.521,-2.5218,-2.5227,-2.5321,-2.5248,-2.5253,-2.5256,-2.5465,-2.5468,-2.5471,0,0,0,0,0,0,-2.4981,-2.4996,-2.5115,-2.506,-2.5075,-2.5098,-2.5131,-2.5134,-2.5154,-2.5181,-2.5184,-2.5156,-2.5208,-2.5219,-2.5286,-2.5324,-2.5256,-2.526,-2.5462,-2.5466,-2.5469,-2.5511,0,0,0,0,0,0,-2.4976,-2.4994,-2.5024,-2.5061,-2.5078,-2.5174,-2.5133,-2.5137,-2.5164,-2.516,-2.5198,-2.5202,-2.5207,-2.5278,-2.5291,-2.533,-2.5264,-2.5458,-2.5463,-2.5468,-2.5506,-2.5516,-2.5524,0,0,0,0,0,-2.4971,-2.5032,-2.5026,-2.5041,-2.5116,-2.5176,-2.5186,-2.5191,-2.5167,-2.5197,-2.5214,-2.5201,-2.5318,-2.5285,-2.5299,-2.534,-2.5456,-2.5462,-2.5468,-2.5502,-2.5514,-2.5524,0,0,0,0,0,0,-2.4998,-2.5037,-2.503,-2.5106,-2.5138,-2.5172,-2.521,-2.5203,-2.5242,-2.5237,-2.5242,-2.5251,-2.5319,-2.5336,-2.5299,-2.5418,-2.5383,-2.5392,-2.5405,-2.5416,-2.5425,-2.5419,-2.5269,0,0,0,0,0,-2.5013,-2.5059,-2.509,-2.5154,-2.517,-2.5188,-2.5214,-2.5216,-2.5249,-2.5262,-2.5284,-2.5316,-2.536,-2.5389,-2.5431,-2.5509,-2.5517,-2.5544,-2.5553,-2.556,-2.5568,-2.5612,-2.5624,-2.549,-2.549,-2.549,0,0,-2.5044,-2.5071,-2.5099,-2.516,-2.5185,-2.5232,-2.5199,-2.525,-2.5285,-2.5269,-2.5334,-2.5351,-2.5387,-2.5461,-2.5494,-2.5477,-2.5607,-2.5567,-2.5573,-2.5577,-2.5619,-2.5632,-2.5643,-2.5494,-2.5493,-2.5492,0,0,-2.5125,-2.515,-2.5206,-2.5232,-2.5271,-2.5283,-2.5296,-2.5332,-2.5344,-2.5409,-2.5398,-2.544,-2.5515,-2.5542,-2.5566,-2.5659,-2.5648,-2.5672,-2.5718,-2.5761,-2.5772,-2.5781,-2.5815,-2.5827,-2.568,-2.568,-2.568,0,-2.5158,-2.523,-2.5236,-2.5288,-2.5316,-2.5305,-2.5362,-2.5387,-2.5437,-2.5456,-2.5436,-2.5532,-2.5556,-2.5636,-2.5659,-2.5677,-2.5694,-2.5668,-2.577,-2.5779,-2.5788,-2.5821,-2.5834,-2.5682,-2.5682,-2.5682,-2.5682,0,-2.5269,-2.5319,-2.536,-2.541,-2.5442,-2.5497,-2.5511,-2.5542,-2.5542,-2.5555,-2.5622,-2.565,-2.5698,-2.5717,-2.5717,-2.5798,-2.5786,-2.5768,-2.5733,-2.5804,-2.5834,-2.5847,-2.5686,-2.5685,-2.5685,-2.5684,0,0,-2.5369,-2.5423,-2.5438,-2.5462,-2.5504,-2.5543,-2.5597,-2.5645,-2.5673,-2.5708,-2.5754,-2.5819,-2.5803,-2.583,-2.5832,-2.587,-2.5943,-2.5847,-2.5848,-2.5865,-2.6036,-2.605,-2.6064,-2.5936,-2.5939,-2.5941,-2.6033,0,-2.5454,-2.5551,-2.5559,-2.5646,-2.5692,-2.5683,-2.5731,-2.5762,-2.5777,-2.5818,-2.5834,-2.588,-2.5855,-2.5872,-2.5908,-2.5926,-2.5977,-2.592,-2.598,-2.5982,-2.5972,-2.608,-2.6094,-2.618,-2.6045,-2.6047,-2.6048,0,-2.5567,-2.5607,-2.5699,-2.5737,-2.5757,-2.5799,-2.5845,-2.5885,-2.592,-2.5928,-2.5959,-2.5957,-2.6013,-2.5976,-2.6054,-2.6014,-2.6039,-2.6052,-2.6055,-2.6062,-2.602,-2.609,-2.6207,-2.6221,-2.6067,-2.6066,-2.6064,0,-2.5631,-2.5709,-2.5774,-2.5794,-2.584,-2.587,-2.589,-2.5924,-2.5953,-2.5992,-2.6011,-2.6057,-2.6081,-2.6117,-2.6127,-2.6099,-2.6205,-2.6168,-2.6214,-2.6213,-2.6237,-2.6235,-2.6361,-2.6251,-2.6251,-2.6251,-2.6251,0,-2.5726,-2.5783,-2.5804,-2.5844,-2.5908,-2.5916,-2.5979,-2.5998,-2.6028,-2.6072,-2.6066,-2.6107,-2.6118,-2.6161,-2.6169,-2.6233,-2.6244,-2.6252,-2.6254,-2.6254,-2.6253,-2.627,-2.6265,-2.6254,-2.6254,-2.6253,-2.6252,0,-2.5809,-2.5826,-2.5897,-2.5934,-2.5945,-2.5991,-2.6023,-2.6062,-2.6076,-2.6132,-2.6145,-2.6167,-2.6218,-2.6232,-2.6292,-2.6298,-2.6374,-2.6369,-2.6362,-2.6362,-2.6407,-2.6403,-2.6549,-2.6569,-2.6446,-2.6447,-2.6448,0,-2.5869,-2.5913,-2.5956,-2.5986,-2.6008,-2.6055,-2.6085,-2.6095,-2.6127,-2.6172,-2.6205,-2.6256,-2.6297,-2.6378,-2.64,-2.6446,-2.6443,-2.6491,-2.645,-2.6449,-2.6446,-2.6443,-2.6448,-2.6499,-2.6501,-2.6502,-2.6502,0,-2.5974,-2.5981,-2.6024,-2.6072,-2.6108,-2.6146,-2.6182,-2.6206,-2.6221,-2.6257,-2.6309,-2.6341,-2.6404,-2.6454,-2.6502,-2.6522,-2.6516,-2.6515,-2.6529,-2.6529,-2.6523,-2.6528,-2.6384,-2.6512,-2.6511,-2.651,-2.651,-2.6509,-2.6048,-2.6088,-2.6125,-2.6174,-2.6203,-2.6237,-2.6276,-2.6296,-2.634,-2.6392,-2.6395,-2.6453,-2.6488,-2.6552,-2.6575,-2.662,-2.6606,-2.6624,-2.6629,-2.6634,-2.6639,-2.6516,-2.6629,-2.6628,-2.6628,-2.6628,-2.6628,0,-2.6154,-2.6178,-2.6223,-2.6275,-2.6314,-2.6305,-2.6344,-2.6378,-2.6429,-2.6463,-2.6504,-2.6565,-2.6614,-2.664,-2.6689,-2.6721,-2.6719,-2.6733,-2.6731,-2.6737,-2.6648,-2.6632,-2.6734,-2.6734,-2.6734,-2.6734,-2.6734,-2.6734,-2.6213,-2.628,-2.6291,-2.6372,-2.6395,-2.6452,-2.6476,-2.6507,-2.6535,-2.6604,-2.6645,-2.6662,-2.6693,-2.6745,-2.679,-2.6797,-2.6815,-2.6832,-2.6837,-2.6753,-2.6743,-2.6732,-2.6718,-2.6836,-2.6836,-2.6922,-2.6922,-2.6923]}]]